This is the latest recevied weather packets stored in our database for station/object KN6WGU. If no packets are shown the sender has not sent any weather packets the latest 1 day(s).
| Time | Temp. | Humidity | Pressure | Rain* | Wind** | Luminosity | Snow |
|---|---|---|---|---|---|---|---|
| 1778042447 | 8.33° C | 99% | 1002.1 hPa | 0 mm | 0 m/s | 0 W/m² | - |
| 1778042144 | 8.33° C | 99% | 1001.8 hPa | 0 mm | 0 m/s | 0 W/m² | - |
| 1778041842 | 7.78° C | 99% | 1001.8 hPa | 0 mm | 0 m/s | 0 W/m² | - |
| 1778041541 | 7.78° C | 99% | 1001.9 hPa | 0 mm | 0 m/s | 0 W/m² | - |
| 1778041239 | 7.78° C | 99% | 1002 hPa | 0 mm | 0 m/s | 0 W/m² | - |
| 1778040937 | 7.78° C | 99% | 1002.1 hPa | 1.27 mm | 0 m/s | 0 W/m² | - |
| 1778040633 | 7.78° C | 99% | 1002.3 hPa | 1.27 mm | 0 m/s | 0 W/m² | - |
| 1778040331 | 7.78° C | 99% | 1002.5 hPa | 0 mm | 0 m/s | 0 W/m² | - |
| 1778040027 | 8.33° C | 99% | 1002.1 hPa | 0 mm | 0 m/s | 0 W/m² | - |
| 1778039724 | 8.33° C | 99% | 1002.5 hPa | 1.78 mm | 0 m/s | 0 W/m² | - |
| 1778039421 | 8.89° C | 99% | 1002.6 hPa | 1.78 mm | 0 m/s | 0 W/m² | - |
| 1778039119 | 8.89° C | 99% | 1002.7 hPa | 1.78 mm | 0 m/s | 0 W/m² | - |
| 1778038815 | 8.89° C | 99% | 1002.6 hPa | 3.05 mm | 0 m/s | 0 W/m² | - |
| 1778038513 | 8.89° C | 99% | 1002.7 hPa | 1.27 mm | 0 m/s | 0 W/m² | - |
| 1778038210 | 8.89° C | 99% | 1002.7 hPa | 1.78 mm | 0 m/s | 0 W/m² | - |
| 1778037907 | 8.89° C | 99% | 1002.9 hPa | 3.05 mm | 0 m/s | 0 W/m² | - |
| 1778037603 | 9.44° C | 99% | 1002.8 hPa | 1.27 mm | 0 m/s | 0 W/m² | - |
| 1778037301 | 9.44° C | 99% | 1002.8 hPa | 1.78 mm | 0 m/s | 0 W/m² | - |
| 1778036998 | 9.44° C | 99% | 1002.7 hPa | 3.05 mm | 0 m/s | 0 W/m² | - |
| 1778036696 | 9.44° C | 99% | 1002.7 hPa | 3.05 mm | 0 m/s | 0 W/m² | - |
| 1778036393 | 9.44° C | 99% | 1002.8 hPa | 3.05 mm | 0 m/s | 0 W/m² | - |
| 1778036089 | 9.44° C | 99% | 1003.1 hPa | 3.05 mm | 0 m/s | 0 W/m² | - |
| 1778035786 | 9.44° C | 99% | 1002.8 hPa | 3.05 mm | 0 m/s | 0 W/m² | - |
| 1778035483 | 9.44° C | 99% | 1002.7 hPa | 3.05 mm | 0 m/s | 0 W/m² | - |
| 1778035178 | 9.44° C | 99% | 1002.8 hPa | 3.05 mm | 0 m/s | 0 W/m² | - |
* Rain latest hour (hover to see other rain measurements)
** Current wind speed in m/s (hover to see current wind gust speed)